BAW173A EGLL-KJFK

Flight info

Callsign BAW173A
Flight time N/A
Altitude 34000
Route CPT3F CPT DCT DIDZA L9 OKSAW DCT BIBPE DCT BUCGO DCT FELCA DCT OFSOX DCT SLANY DCT MALOT/M083F360 DCT 54N020W 54N030W 54N040W 53N050W DCT RIKAL/N0469F360 N572A TOPPS DCT ENE PARCH4
Aircraft B77W/H-SDE1E2E3FGHIJ2J3J4J5M1RWXY/LB1D1

Departure

Time 2026-05-05 08:44
Airport London Heathrow Airport (EGLL)

Arrival

Time N/A
Airport John F. Kennedy International Airport (KJFK)
Time Latitude Longitude Altitude Speed Heading
2026-05-05 07:50 51.47055 -0.47490 94 ft 0 kts 270°
2026-05-05 07:52 51.47055 -0.47493 94 ft 0 kts 269°
2026-05-05 07:56 51.47055 -0.47492 91 ft 0 kts 269°
2026-05-05 08:10 51.47055 -0.47491 91 ft 0 kts 269°
2026-05-05 08:26 51.47055 -0.47490 91 ft 0 kts 269°
2026-05-05 08:33 51.47055 -0.47470 94 ft 3 kts 269°
2026-05-05 08:33 51.47055 -0.47427 91 ft 3 kts 269°
2026-05-05 08:33 51.47055 -0.47392 91 ft 4 kts 261°
2026-05-05 08:33 51.47065 -0.47359 92 ft 4 kts 207°
2026-05-05 08:34 51.47088 -0.47352 91 ft 3 kts 180°
2026-05-05 08:34 51.47114 -0.47352 90 ft 1 kts 180°
2026-05-05 08:34 51.47115 -0.47352 90 ft 1 kts 180°
2026-05-05 08:38 51.47114 -0.47352 90 ft 1 kts 180°
2026-05-05 08:38 51.47097 -0.47352 90 ft 4 kts 180°
2026-05-05 08:38 51.47065 -0.47352 92 ft 6 kts 180°
2026-05-05 08:39 51.46991 -0.47351 92 ft 12 kts 180°
2026-05-05 08:39 51.46907 -0.47351 91 ft 12 kts 180°
2026-05-05 08:39 51.46824 -0.47351 91 ft 12 kts 180°
2026-05-05 08:39 51.46740 -0.47348 92 ft 12 kts 178°
2026-05-05 08:40 51.46673 -0.47359 96 ft 9 kts 212°
2026-05-05 08:40 51.46656 -0.47450 92 ft 9 kts 268°
2026-05-05 08:40 51.46655 -0.47555 93 ft 11 kts 270°
2026-05-05 08:40 51.46655 -0.47697 93 ft 13 kts 269°
2026-05-05 08:41 51.46654 -0.47841 91 ft 13 kts 270°
2026-05-05 08:41 51.46654 -0.47985 93 ft 13 kts 270°
2026-05-05 08:41 51.46654 -0.48129 91 ft 13 kts 270°
2026-05-05 08:41 51.46653 -0.48273 91 ft 13 kts 270°
2026-05-05 08:42 51.46653 -0.48403 93 ft 6 kts 269°
2026-05-05 08:42 51.46632 -0.48457 95 ft 7 kts 208°
2026-05-05 08:42 51.46585 -0.48468 92 ft 8 kts 180°
2026-05-05 08:42 51.46523 -0.48468 91 ft 9 kts 180°
2026-05-05 08:43 51.46481 -0.48447 95 ft 6 kts 125°
2026-05-05 08:43 51.46479 -0.48368 94 ft 13 kts 89°
2026-05-05 08:43 51.46480 -0.47987 92 ft 66 kts 90°
2026-05-05 08:43 51.46484 -0.46841 97 ft 137 kts 89°
2026-05-05 08:44 51.46495 -0.45002 112 ft 189 kts 91°
2026-05-05 08:44 51.46485 -0.42898 745 ft 187 kts 86°
2026-05-05 08:44 51.46394 -0.40842 1583 ft 186 kts 101°
2026-05-05 08:44 51.45795 -0.38914 2057 ft 207 kts 127°
2026-05-05 08:45 51.44592 -0.37425 2392 ft 234 kts 153°
2026-05-05 08:45 51.42933 -0.36871 2770 ft 255 kts 183°
2026-05-05 08:45 51.41246 -0.37665 3464 ft 262 kts 212°
2026-05-05 08:45 51.39986 -0.39744 4211 ft 263 kts 244°
2026-05-05 08:46 51.39556 -0.42586 4875 ft 270 kts 275°
2026-05-05 08:46 51.39921 -0.45525 5476 ft 272 kts 287°
2026-05-05 08:46 51.40391 -0.48479 6283 ft 275 kts 285°
2026-05-05 08:46 51.40829 -0.51446 7151 ft 274 kts 284°
2026-05-05 08:47 51.41240 -0.54441 7945 ft 277 kts 283°
2026-05-05 08:47 51.41633 -0.57483 8718 ft 280 kts 282°
2026-05-05 08:47 51.42014 -0.60558 9547 ft 283 kts 282°
2026-05-05 08:47 51.42384 -0.63630 10271 ft 288 kts 281°
2026-05-05 08:48 51.42767 -0.66878 10610 ft 309 kts 282°
2026-05-05 08:48 51.43179 -0.70411 10810 ft 336 kts 281°
2026-05-05 08:48 51.43619 -0.74225 11082 ft 359 kts 282°
2026-05-05 08:48 51.44094 -0.78221 11721 ft 371 kts 282°
2026-05-05 08:49 51.44598 -0.82317 12556 ft 378 kts 282°
2026-05-05 08:49 51.45109 -0.86487 13456 ft 385 kts 282°
2026-05-05 08:49 51.45618 -0.90731 14326 ft 390 kts 281°
2026-05-05 08:49 51.46109 -0.95020 15229 ft 393 kts 280°
2026-05-05 08:50 51.46600 -0.99355 16135 ft 396 kts 280°
2026-05-05 08:50 51.47089 -1.03665 16997 ft 401 kts 279°
2026-05-05 08:50 51.47592 -1.08096 17788 ft 407 kts 279°
2026-05-05 08:50 51.48103 -1.12592 18590 ft 412 kts 279°
2026-05-05 08:51 51.48616 -1.17136 19331 ft 415 kts 279°
2026-05-05 08:51 51.49457 -1.21560 19936 ft 420 kts 297°
2026-05-05 08:51 51.51200 -1.25341 20662 ft 424 kts 315°
2026-05-05 08:51 51.53419 -1.28516 21192 ft 432 kts 317°
2026-05-05 08:52 51.55672 -1.31770 21857 ft 437 kts 316°
2026-05-05 08:52 51.57905 -1.35108 22578 ft 440 kts 315°
2026-05-05 08:52 51.59987 -1.38726 23354 ft 441 kts 307°
2026-05-05 08:52 51.61797 -1.42655 23945 ft 445 kts 302°
2026-05-05 08:53 51.63368 -1.46967 24473 ft 448 kts 295°
2026-05-05 08:53 51.64797 -1.51445 25015 ft 452 kts 295°
2026-05-05 08:53 51.66246 -1.55956 25611 ft 454 kts 295°
2026-05-05 08:53 51.67722 -1.60467 26217 ft 457 kts 295°
2026-05-05 08:54 51.69124 -1.65064 26775 ft 458 kts 290°
2026-05-05 08:54 51.70176 -1.69913 27309 ft 458 kts 283°
2026-05-05 08:54 51.70909 -1.74914 27840 ft 459 kts 277°
2026-05-05 08:54 51.71291 -1.79949 28351 ft 459 kts 272°
2026-05-05 08:55 51.71609 -1.85076 28861 ft 462 kts 273°
2026-05-05 08:55 51.71953 -1.90244 29382 ft 465 kts 273°
2026-05-05 08:55 51.72316 -1.95437 29895 ft 466 kts 273°
2026-05-05 08:55 51.72686 -2.00622 30460 ft 465 kts 273°
2026-05-05 08:56 51.73056 -2.05807 30921 ft 465 kts 274°
2026-05-05 08:56 51.73421 -2.10984 31306 ft 467 kts 274°
2026-05-05 08:56 51.73785 -2.16200 31687 ft 468 kts 274°
2026-05-05 08:56 51.74142 -2.21359 32106 ft 469 kts 274°
2026-05-05 08:57 51.74505 -2.26654 32536 ft 469 kts 274°
2026-05-05 08:57 51.74857 -2.31825 32934 ft 470 kts 274°
2026-05-05 08:57 51.75212 -2.37067 33314 ft 471 kts 274°
2026-05-05 08:57 51.75564 -2.42317 33693 ft 471 kts 274°
2026-05-05 08:58 51.75916 -2.47602 33931 ft 475 kts 274°
2026-05-05 08:58 51.76624 -2.58303 34024 ft 480 kts 275°
2026-05-05 08:59 51.77314 -2.68871 34021 ft 474 kts 274°
2026-05-05 08:59 51.77992 -2.79462 34023 ft 476 kts 275°
2026-05-05 09:00 51.78666 -2.90131 33994 ft 479 kts 275°
2026-05-05 09:00 51.79336 -3.00865 34000 ft 481 kts 276°
2026-05-05 09:01 51.80000 -3.11657 34009 ft 484 kts 276°
2026-05-05 09:01 51.80652 -3.22426 34007 ft 486 kts 276°
2026-05-05 09:02 51.81298 -3.33268 34024 ft 484 kts 275°
2026-05-05 09:02 51.81933 -3.44084 34025 ft 483 kts 276°
2026-05-05 09:03 51.82605 -3.54861 34036 ft 481 kts 279°
2026-05-05 09:03 51.83918 -3.65359 34035 ft 479 kts 283°
2026-05-05 09:04 51.85328 -3.75892 34040 ft 480 kts 283°
2026-05-05 09:04 51.86709 -3.86463 34169 ft 483 kts 282°
2026-05-05 09:04 51.87393 -3.91798 34423 ft 484 kts 282°
2026-05-05 09:05 51.88070 -3.97130 34794 ft 483 kts 282°
2026-05-05 09:05 51.88743 -4.02450 35121 ft 483 kts 282°
2026-05-05 09:05 51.89412 -4.07772 35442 ft 482 kts 282°
2026-05-05 09:05 51.90069 -4.13009 35784 ft 481 kts 282°
2026-05-05 09:06 51.90734 -4.18321 36012 ft 482 kts 282°
2026-05-05 09:06 51.92067 -4.29049 36046 ft 486 kts 282°
2026-05-05 09:07 51.93386 -4.39738 36029 ft 480 kts 282°
2026-05-05 09:07 51.94678 -4.50294 36045 ft 475 kts 282°
2026-05-05 09:08 51.95956 -4.60817 36052 ft 479 kts 282°
2026-05-05 09:08 51.97232 -4.71397 36065 ft 484 kts 282°
2026-05-05 09:09 51.98508 -4.82076 36049 ft 479 kts 282°
2026-05-05 09:09 51.99759 -4.92633 36052 ft 475 kts 282°
2026-05-05 09:10 52.00996 -5.03143 36059 ft 473 kts 282°
2026-05-05 09:10 52.02211 -5.13543 36058 ft 472 kts 281°
2026-05-05 09:11 52.03702 -5.23885 36058 ft 470 kts 290°
2026-05-05 09:11 52.05789 -5.33958 36073 ft 471 kts 290°
2026-05-05 09:12 52.07880 -5.44062 36069 ft 473 kts 289°